This is the latest recevied weather packets stored in our database for station/object KD8FRE. If no packets are shown the sender has not sent any weather packets the latest 1 day(s).
| Time | Temp. | Humidity | Pressure | Rain* | Wind** | Luminosity | Snow |
|---|---|---|---|---|---|---|---|
| 1778093698 | 10° C | 49% | 1013.1 hPa | 0 mm | - | 279 W/m² | - |
| 1778092484 | 9.44° C | 48% | 1013.1 hPa | 0 mm | - | 199 W/m² | - |
| 1778091274 | 10° C | 47% | 1013.1 hPa | 0 mm | - | 137 W/m² | - |
| 1778089757 | 10° C | 46% | 1013.3 hPa | 0 mm | - | 283 W/m² | - |
| 1778088242 | 10° C | 50% | 1013.8 hPa | 0 mm | - | 327 W/m² | - |
| 1778087030 | 8.89° C | 49% | 1013.5 hPa | 0 mm | - | 274 W/m² | - |
| 1778086123 | 8.89° C | 53% | 1013.5 hPa | 0 mm | - | 158 W/m² | - |
| 1778085212 | 8.33° C | 55% | 1013.3 hPa | 0 mm | - | 178 W/m² | - |
| 1778084606 | 8.89° C | 52% | 1013.3 hPa | 0 mm | - | 334 W/m² | - |
| 1778083698 | 9.44° C | 52% | 1013.4 hPa | 0 mm | - | 146 W/m² | - |
| 1778080149 | 8.33° C | 54% | 1013 hPa | 0 mm | - | 135 W/m² | - |
| 1778077423 | 8.33° C | 64% | 1012.7 hPa | 0 mm | - | 380 W/m² | - |
| 1778077121 | 7.78° C | 65% | 1012.5 hPa | 0 mm | - | 264 W/m² | - |
| 1778076213 | 7.22° C | 68% | 1012.7 hPa | 0 mm | - | 130 W/m² | - |
| 1778075910 | 7.22° C | 66% | 1012.4 hPa | 0 mm | - | 154 W/m² | - |
| 1778075303 | 7.22° C | 67% | 1012.2 hPa | 0 mm | - | 292 W/m² | - |
| 1778074697 | 7.22° C | 68% | 1012.4 hPa | 0 mm | - | 244 W/m² | - |
| 1778072878 | 7.22° C | 73% | 1011.9 hPa | 0 mm | - | 222 W/m² | - |
| 1778072575 | 6.67° C | 76% | 1011.7 hPa | 0 mm | - | 182 W/m² | - |
| 1778072273 | 7.22° C | 76% | 1011.8 hPa | 0 mm | - | 104 W/m² | - |
| 1778071669 | 6.67° C | 77% | 1011.5 hPa | 0 mm | - | 202 W/m² | - |
| 1778071366 | 7.22° C | 76% | 1011.4 hPa | 0 mm | - | 153 W/m² | - |
| 1778070762 | 6.67° C | 76% | 1011.4 hPa | 0 mm | - | 117 W/m² | - |
| 1778069854 | 6.67° C | 74% | 1011.2 hPa | 0 mm | - | 86 W/m² | - |
| 1778069550 | 6.67° C | 73% | 1011 hPa | 0 mm | - | 100 W/m² | - |
* Rain latest hour (hover to see other rain measurements)
** Current wind speed in m/s (hover to see current wind gust speed)